Regional Weather Roundup
Issued by NWS

Home | Current Version | Previous Version | Text Only | Print | Product List | Glossary On
Versions: 1 2 3 4 5 6 7 8 9 10 11 12 13 14 15 16 17 18 19 20 21 22 23 24 25 26 27 28 29 30 31 32 33 34 35 36 37 38 39 40 41 42 43 44 45 46 47 48 49 50
426
ASUS43 KLSX 281307
RWRMO

WEATHER SUMMARY FOR MISSOURI
NATIONAL WEATHER SERVICE SPRINGFIELD MO
700 AM CST TUE FEB 28 2017

NOTE: "FAIR" INDICATES FEW OR NO CLOUDS BELOW 12,000 FEET WITH NO
       SIGNIFICANT WEATHER AND/OR OBSTRUCTIONS TO VISIBILITY.
       CURRENT SKY AND/OR WEATHER CONDITIONS ARE NOT AVAILABLE FOR
       CHILLICOTHE AND FARMINGTON.

MOZ001>031-035>038-043-044-053-054-281400-
...NORTHERN AND WESTERN MISSOURI...

CITY           SKY/WX    TMP DP  RH WIND       PRES   REMARKS
KANSAS CTY INT CLOUDY    62  58  86 S14       29.67F
KANSAS C DTWN  CLOUDY    62  58  86 S10       29.67F
LEE`S SUMMIT   PTCLDY    61  58  90 S15       29.70S
ST JOSEPH      PTCLDY    60  58  92 SW13      29.65R
CHILLICOTHE      N/A     61  56  83 S9G20     29.69R
KIRKSVILLE     CLOUDY    59  54  83 S16       29.69F

$$
MOZ066>068-077>081-088>096-101>105-281400-
...SOUTHWEST MISSOURI...

CITY           SKY/WX    TMP DP  RH WIND       PRES   REMARKS
SPRINGFIELD    CLOUDY    61  58  90 S14       29.81F
JOPLIN         CLOUDY    65  62  90 S16       29.78S
BRANSON        CLOUDY    63  59  88 S8        29.86F

$$
MOZ032>034-039>042-045>050-055>058-069>072-281400-
...CENTRAL MISSOURI...

CITY           SKY/WX    TMP DP  RH WIND       PRES   REMARKS
COLUMBIA       CLOUDY    60  56  86 S14       29.78F
JEFFERSON CITY CLOUDY    61  55  81 S9        29.80R
ROLLA          CLOUDY    59  56  89 S14       29.83R
SEDALIA        CLOUDY    63  58  83 S17       29.75F
WHITEMAN AFB   CLOUDY    61  61 100 SW12      29.72F
WARRENSBURG    CLOUDY    61  55  82 S9        29.73S
OSAGE BEACH    CLOUDY    61  56  83 S10       29.81S

$$
MOZ051-052-059>065-281400-
...EAST CENTRAL MISSOURI...

CITY           SKY/WX    TMP DP  RH WIND       PRES   REMARKS
ST LOUIS INTL  CLOUDY    58  53  84 S10       29.85S
SPIRIT OF STL  CLOUDY    58  55  90 S12       29.83S
ST CHARLES     CLOUDY    56  54  93 SE7       29.84F

$$
MOZ072>076-082>087-097>100-106>115-281400-
...SOUTH CENTRAL AND SOUTHEAST MISSOURI...

CITY           SKY/WX    TMP DP  RH WIND       PRES   REMARKS
CAPE GIRARDEAU CLOUDY    56  55  97 S9        29.94F FOG
FARMINGTON     CLOUDY    55  54  96 S12       29.90F FOG
POPLAR BLUFF   FOG       58  58 100 S8        29.93F VSB 1
WEST PLAINS    CLOUDY    58  57  97 S7        29.91S FOG

$$



USA.gov is the U.S. government's official web portal to all federal, state and local government web resources and services.